Hourly Data Report for October 10, 2020

OTTAWA INTL A
ONTARIO
Current Station Operator: NAVCAN

45°19'00.000" N
75°40'00.000" W
114.90 m
6106001
71628
YOW

Download Data

Hourly Data (October 2020)
Hourly Data Report for October 10, 2020
TIME Temp Definition
°C
Dew Point Definition
°C
Rel Hum Definition
%
Wind Dir Definition
10's deg

Wind Spd Definition
km/h
Visibility Definition
km
Stn Press Definition
kPa
Hmdx Definition


Wind Chill Definition


Weather Definition


00:00 12.8 7.9 72 20 19 24.1 99.30     LegendNANA
01:00 14.2 8.3 68 20 23 24.1 99.18     Mostly Cloudy
02:00 16.2 8.7 61 22 27 24.1 99.11     LegendNANA
03:00 17.1 8.7 58 21 28 24.1 99.05     LegendNANA
04:00 16.9 8.9 59 21 23 24.1 99.05     Mostly Cloudy
05:00 16.4 9.1 62 21 23 24.1 99.06     LegendNANA
06:00 15.8 9.5 66 20 20 24.1 99.09     LegendNANA
07:00 16.5 10.3 66 21 22 24.1 99.13     Mostly Cloudy
08:00 17.1 11.1 68 20 23 24.1 99.11     LegendNANA
09:00 19.1 12.2 64 21 22 24.1 99.05     LegendNANA
10:00 20.6 13.1 61 22 23 24.1 99.01     Mainly Clear
11:00 21.5 13.8 61 23 31 24.1 98.96 25   LegendNANA
12:00 21.4 14.3 63 23 30 24.1 98.93 25   LegendNANA
13:00 20.8 14.9 69 23 31 24.1 98.88 25   Rain Showers
14:00 22.5 15.3 64 22 24 24.1 98.80 27   LegendNANA
15:00 21.9 15.2 65 23 33 24.1 98.75 26   LegendNANA
16:00 21.0 14.8 67 24 41 24.1 98.83 25   Mostly Cloudy
17:00 18.2 11.1 63 30 34 24.1 99.09     LegendNANA
18:00 16.1 8.7 61 31 24 24.1 99.34     LegendNANA
19:00 13.1 6.4 63 32 33 24.1 99.65     Mainly Clear
20:00 11.1 3.8 61 34 37 24.1 99.86     LegendNANA
21:00 9.6 1.6 57 32 41 24.1 100.07     LegendNANA
22:00 8.6 1.6 61 33 27 24.1 100.22     Mainly Clear
23:00 8.0 1.8 65 32 25 24.1 100.35     LegendNANA

Notes on Data Quality.

Legend

  • E = Estimated
  • M = Missing
  • NA = Not Available*
  • [empty] = Indicates an unobserved value
Date modified: